Weather in Oyama

Japan     36°18′54″N   139°48′12″E
temp.,
°C
wind,
m/s
gust,
m/s
humid.,
%
clouds,
%
prec.,
mm/h
press.,
hPa
HPBL,
m
1 december, wed
wed100:00+14s4984100 1.0 1010689
03:00+16s92082100 3.8 10051730
06:00+16sse112388100 5.6 9961821
09:00+13wsw51281100 35.9 996348
12:00+19wnw5103917 0.1 9951318
15:00+16wnw914340 0.1 997862
18:00+13wnw711350 0.0 1002931
21:00+11wnw914330 0.0 1004852
2 december, thu
thu200:00+10wnw813389 0.0 10061269
03:00+9w49400 0.0 10091526
06:00+8nw49340 0.0 10131459
09:00+10wnw49260 0.0 10161444
12:00+12wnw57220 0.0 10151085
15:00+13sw35210 0.0 10161438
18:00+11s37345 0.0 1018957
21:00+11sse475098 0.0 1019752
3 december, fri
fri300:00+10e127188 0.4 1018450
03:00+10nne127278 0.4 1017304
06:00+9wsw12630 0.0 1016130
09:00+10wsw24470 0.0 1016432
12:00+13sw24330 0.0 1013770
15:00+15wsw24220 0.0 1012859
18:00+13se01250 0.0 101214
21:00+11nne12370 0.0 101345
4 december, sat
sat400:00+9n23580 0.0 1011107
03:00+9nw23490 0.0 101194
06:00+8n12480 0.0 101158
09:00+10ne11410 0.0 1012305
12:00+14w25330 0.0 10101097
15:00+16w37252 0.0 10102107
18:00+12ne37425 0.0 1013548
21:00+11w13395 0.0 1016274
5 december, sun
sun500:00+9n13395 0.0 1017240
03:00+8ene01481 0.0 1020167
06:00+7sse13421 0.0 1022238
09:00+8ssw02330 0.0 1025796
12:00+10ese11260 0.0 10251129
15:00+11e32250 0.0 10261290
18:00+10e34340 0.0 1029620
21:00+9ese24470 0.0 1031601